Location: Dompnac
(44.5644°N, 4.1026°E)
Time: 18:05:47
(UTC+00:00)

Cosmos 1634 Rocket - Pass Details

Date: 22 January 2021
Orbit: 961 x 991 km, 82.9° (Epoch: 05 March)

Event Time Altitude Azimuth Distance (km) Brightness Sun altitude
Rises 04:37:01 0° 146° (SE) 3,632 7.5 -27.4°
Reaches altitude 10° 04:40:00 10° 133° (SE) 2,690 6.9 -26.9°
Maximum altitude 04:44:39 23° 83° (E) 1,921 6.3 -26.0°
Drops below altitude 10° 04:49:19 10° 34° (NNE) 2,708 6.7 -25.2°
Sets 04:52:19 0° 20° (NNE) 3,662 7.2 -24.7°
